| time (UTC) | temp F | wind direction | speed MPH | gust MPH | rain 1hr in | rain 24hr in | rain mn in | humidity % | barometer mb |
| 20260502170353 | 94 | 116 | 2.0 | 8.0 | 0.00 | 0.00 | 0.00 | 64 | 1012.1 |
| 20260502164334 | 93 | 250 | 4.0 | 12.0 | 0.00 | 0.00 | 0.00 | 65 | 1012.1 |
| 20260502163819 | 93 | 108 | 4.0 | 12.0 | 0.00 | 0.00 | 0.00 | 65 | 1012.3 |
| 20260502163327 | 93 | 174 | 3.0 | 9.0 | 0.00 | 0.00 | 0.00 | 66 | 1012.2 |
| 20260502162819 | 92 | 18 | 2.0 | 9.0 | 0.00 | 0.00 | 0.00 | 66 | 1012.3 |
| 20260502162331 | 93 | 141 | 2.0 | 9.0 | 0.00 | 0.00 | 0.00 | 66 | 1012.6 |
| 20260502161900 | 93 | 312 | 2.0 | 9.0 | 0.00 | 0.00 | 0.00 | 65 | 1012.6 |
| 20260502161347 | 92 | 167 | 5.0 | 9.0 | 0.00 | 0.00 | 0.00 | 65 | 1012.5 |
| 20260502160829 | 92 | 5 | 2.0 | 8.0 | 0.00 | 0.00 | 0.00 | 64 | 1012.6 |
| 20260502160340 | 92 | 155 | 3.0 | 8.0 | 0.00 | 0.00 | 0.00 | 66 | 1012.5 |
| 20260502152332 | 91 | 114 | 3.0 | 10.0 | 0.00 | 0.00 | 0.00 | 66 | 1012.8 |
| 20260502151822 | 90 | 117 | 3.0 | 10.0 | 0.00 | 0.00 | 0.00 | 67 | 1012.8 |
| 20260502151332 | 90 | 139 | 2.0 | 5.0 | 0.00 | 0.00 | 0.00 | 68 | 1013.0 |
| 20260502150824 | 90 | 154 | 2.0 | 6.0 | 0.00 | 0.00 | 0.00 | 69 | 1012.9 |
| 20260502150331 | 90 | 306 | 2.0 | 6.0 | 0.00 | 0.00 | 0.00 | 70 | 1012.8 |
| 20260502130331 | 83 | 140 | 3.0 | 8.0 | 0.00 | 0.00 | 0.00 | 80 | 1012.5 |
| 20260502123323 | 80 | 165 | 2.0 | 4.0 | 0.00 | 0.00 | 0.00 | 82 | 1012.6 |
| 20260502122909 | 80 | 110 | 1.0 | 4.0 | 0.00 | 0.00 | 0.00 | 82 | 1012.6 |
| 20260502122332 | 80 | 115 | 1.0 | 4.0 | 0.00 | 0.00 | 0.00 | 82 | 1012.6 |
| 20260502121834 | 80 | 146 | 1.0 | 3.0 | 0.00 | 0.00 | 0.00 | 82 | 1012.6 |
| 20260502121323 | 79 | 156 | 1.0 | 3.0 | 0.00 | 0.00 | 0.00 | 83 | 1012.5 |
| 20260502120826 | 79 | 197 | 1.0 | 3.0 | 0.00 | 0.00 | 0.00 | 83 | 1012.6 |
| 20260502120346 | 78 | 127 | 1.0 | 3.0 | 0.00 | 0.00 | 0.00 | 84 | 1012.6 |
| 20260502115827 | 77 | 126 | 1.0 | 2.0 | 0.00 | 0.00 | 0.00 | 85 | 1012.6 |
| 20260502115339 | 77 | 162 | 0.0 | 2.0 | 0.00 | 0.00 | 0.00 | 85 | 1012.6 |
| 20260502114829 | 76 | 172 | 0.0 | 0.0 | 0.00 | 0.00 | 0.00 | 86 | 1012.7 |
| 20260502114323 | 76 | 152 | 0.0 | 0.0 | 0.00 | 0.00 | 0.00 | 86 | 1012.8 |
| 20260502113836 | 75 | 168 | 0.0 | 0.0 | 0.00 | 0.00 | 0.00 | 86 | 1012.7 |
| 20260502113330 | 75 | 168 | 0.0 | 0.0 | 0.00 | 0.00 | 0.00 | 86 | 1012.8 |
| 20260502112824 | 75 | 168 | 0.0 | 1.0 | 0.00 | 0.00 | 0.00 | 87 | 1012.7 |
| 20260502112335 | 75 | 165 | 0.0 | 1.0 | 0.00 | 0.00 | 0.00 | 87 | 1012.7 |
| 20260502111825 | 74 | 134 | 0.0 | 1.0 | 0.00 | 0.00 | 0.00 | 87 | 1012.8 |
| 20260502111347 | 74 | 131 | 0.0 | 1.0 | 0.00 | 0.00 | 0.00 | 88 | 1012.9 |
| 20260502110838 | 74 | 161 | 0.0 | 2.0 | 0.00 | 0.00 | 0.00 | 88 | 1012.7 |
| 20260502110333 | 74 | 148 | 1.0 | 2.0 | 0.00 | 0.00 | 0.00 | 88 | 1012.7 |
| 20260502105827 | 74 | 131 | 0.0 | 1.0 | 0.00 | 0.00 | 0.00 | 88 | 1012.7 |
| 20260502105336 | 74 | 131 | 0.0 | 0.0 | 0.00 | 0.00 | 0.00 | 88 | 1012.7 |
| 20260502104847 | 73 | 131 | 0.0 | 0.0 | 0.00 | 0.00 | 0.00 | 88 | 1012.7 |
| 20260502104349 | 73 | 131 | 0.0 | 1.0 | 0.00 | 0.00 | 0.00 | 88 | 1012.7 |
| 20260502103822 | 73 | 131 | 0.0 | 1.0 | 0.00 | 0.00 | 0.00 | 88 | 1012.7 |
| 20260502103322 | 73 | 129 | 0.0 | 1.0 | 0.00 | 0.00 | 0.00 | 88 | 1012.5 |
| 20260502102832 | 73 | 169 | 0.0 | 1.0 | 0.00 | 0.00 | 0.00 | 88 | 1012.5 |
| 20260502102326 | 73 | 167 | 0.0 | 0.0 | 0.00 | 0.00 | 0.00 | 88 | 1012.5 |
| 20260502101837 | 73 | 162 | 0.0 | 1.0 | 0.00 | 0.00 | 0.00 | 87 | 1012.5 |
| 20260502101404 | 73 | 152 | 0.0 | 0.0 | 0.00 | 0.00 | 0.00 | 87 | 1012.5 |
| 20260502100836 | 73 | 134 | 0.0 | 0.0 | 0.00 | 0.00 | 0.00 | 87 | 1012.5 |
| 20260502100336 | 73 | 134 | 0.0 | 0.0 | 0.00 | 0.00 | 0.00 | 87 | 1012.6 |
| 20260502091336 | 72 | 352 | 0.0 | 0.0 | 0.00 | 0.00 | 0.00 | 87 | 1012.6 |
| 20260502090830 | 72 | 352 | 0.0 | 0.0 | 0.00 | 0.00 | 0.00 | 87 | 1012.6 |
| 20260502090323 | 72 | 352 | 0.0 | 0.0 | 0.00 | 0.00 | 0.00 | 87 | 1012.5 |
| 20260502071341 | 73 | 225 | 0.0 | 0.0 | 0.00 | 0.00 | 0.00 | 86 | 1012.6 |
| 20260502070830 | 73 | 225 | 0.0 | 0.0 | 0.00 | 0.00 | 0.00 | 85 | 1012.7 |
| 20260502070323 | 73 | 225 | 0.0 | 1.0 | 0.00 | 0.00 | 0.00 | 86 | 1012.7 |
| 20260502065824 | 73 | 225 | 0.0 | 1.0 | 0.00 | 0.00 | 0.00 | 86 | 1012.7 |
| 20260502065335 | 73 | 283 | 0.0 | 0.0 | 0.00 | 0.00 | 0.00 | 85 | 1012.7 |
| 20260502064851 | 73 | 283 | 0.0 | 0.0 | 0.00 | 0.00 | 0.00 | 85 | 1012.8 |
| 20260502064321 | 73 | 283 | 0.0 | 0.0 | 0.00 | 0.00 | 0.00 | 85 | 1012.9 |
| 20260502063831 | 73 | 283 | 0.0 | 0.0 | 0.00 | 0.00 | 0.00 | 85 | 1012.9 |
| 20260502063345 | 73 | 283 | 0.0 | 0.0 | 0.00 | 0.00 | 0.00 | 85 | 1012.8 |
| 20260502062838 | 73 | 283 | 0.0 | 0.0 | 0.00 | 0.00 | 0.00 | 85 | 1012.7 |
| 20260502062403 | 73 | 283 | 0.0 | 0.0 | 0.00 | 0.00 | 0.00 | 85 | 1012.7 |
| 20260502061824 | 73 | 283 | 0.0 | 0.0 | 0.00 | 0.00 | 0.00 | 85 | 1012.8 |
| 20260502061330 | 74 | 283 | 0.0 | 0.0 | 0.00 | 0.00 | 0.00 | 84 | 1012.9 |
| 20260502060821 | 74 | 283 | 0.0 | 0.0 | 0.00 | 0.00 | 0.00 | 84 | 1013.0 |
| 20260502060332 | 74 | 283 | 0.0 | 0.0 | 0.00 | 0.00 | 0.00 | 84 | 1013.1 |
| 20260502055845 | 74 | 283 | 0.0 | 0.0 | 0.00 | 0.00 | 0.00 | 83 | 1013.0 |
| 20260502055321 | 74 | 283 | 0.0 | 0.0 | 0.00 | 0.00 | 0.00 | 83 | 1013.0 |
| 20260502054849 | 74 | 283 | 0.0 | 0.0 | 0.00 | 0.00 | 0.00 | 83 | 1013.0 |
| 20260502054339 | 75 | 283 | 0.0 | 0.0 | 0.00 | 0.00 | 0.00 | 82 | 1013.1 |
| 20260502053831 | 75 | 283 | 0.0 | 0.0 | 0.00 | 0.00 | 0.00 | 82 | 1013.1 |
| 20260502053343 | 75 | 283 | 0.0 | 0.0 | 0.00 | 0.00 | 0.00 | 82 | 1013.2 |
| 20260502052830 | 75 | 283 | 0.0 | 1.0 | 0.00 | 0.00 | 0.00 | 82 | 1013.2 |
| 20260502052330 | 75 | 128 | 0.0 | 1.0 | 0.00 | 0.00 | 0.00 | 81 | 1013.3 |
| 20260502051821 | 76 | 120 | 0.0 | 1.0 | 0.00 | 0.00 | 0.00 | 81 | 1013.1 |
| 20260502051343 | 76 | 120 | 0.0 | 0.0 | 0.00 | 0.00 | 0.00 | 81 | 1013.2 |
| 20260502050825 | 76 | 117 | 0.0 | 1.0 | 0.00 | 0.00 | 0.00 | 81 | 1013.1 |
| 20260502050335 | 76 | 146 | 0.0 | 1.0 | 0.00 | 0.00 | 0.00 | 81 | 1013.1 |
| 20260502045828 | 76 | 146 | 0.0 | 1.0 | 0.00 | 0.00 | 0.00 | 80 | 1013.1 |
| 20260502045321 | 77 | 151 | 0.0 | 3.0 | 0.00 | 0.00 | 0.00 | 80 | 1013.1 |
| 20260502044830 | 77 | 146 | 0.0 | 3.0 | 0.00 | 0.00 | 0.00 | 80 | 1013.2 |
| 20260502044321 | 77 | 136 | 1.0 | 3.0 | 0.00 | 0.00 | 0.00 | 80 | 1013.1 |
| 20260502043858 | 77 | 135 | 0.0 | 4.0 | 0.00 | 0.00 | 0.00 | 80 | 1013.1 |
| 20260502043327 | 78 | 165 | 0.0 | 4.0 | 0.00 | 0.00 | 0.00 | 80 | 1013.2 |
| 20260502042820 | 78 | 150 | 1.0 | 4.0 | 0.00 | 0.00 | 0.00 | 80 | 1013.2 |
| 20260502042342 | 78 | 121 | 1.0 | 4.0 | 0.00 | 0.00 | 0.00 | 80 | 1013.2 |
| 20260502041837 | 78 | 144 | 0.0 | 5.0 | 0.00 | 0.00 | 0.00 | 80 | 1013.1 |
| 20260502041336 | 78 | 272 | 0.0 | 4.0 | 0.00 | 0.00 | 0.00 | 81 | 1013.2 |
| 20260502040826 | 78 | 154 | 1.0 | 4.0 | 0.00 | 0.00 | 0.00 | 82 | 1013.1 |
| 20260502040348 | 78 | 146 | 1.0 | 6.0 | 0.00 | 0.00 | 0.00 | 82 | 1013.1 |
| 20260502035833 | 79 | 172 | 2.0 | 6.0 | 0.00 | 0.00 | 0.00 | 82 | 1013.0 |
| 20260502035345 | 79 | 184 | 2.0 | 4.0 | 0.00 | 0.00 | 0.00 | 81 | 1013.2 |
| 20260502034854 | 79 | 159 | 1.0 | 5.0 | 0.00 | 0.00 | 0.00 | 81 | 1013.2 |
| 20260502034326 | 79 | 155 | 2.0 | 7.0 | 0.00 | 0.00 | 0.00 | 81 | 1013.2 |
| 20260502033839 | 79 | 162 | 2.0 | 7.0 | 0.00 | 0.00 | 0.00 | 81 | 1013.2 |
| 20260502033406 | 79 | 165 | 2.0 | 6.0 | 0.00 | 0.00 | 0.00 | 81 | 1013.2 |
| 20260502032839 | 79 | 154 | 0.0 | 6.0 | 0.00 | 0.00 | 0.00 | 80 | 1013.1 |
| 20260502032329 | 79 | 176 | 2.0 | 5.0 | 0.00 | 0.00 | 0.00 | 80 | 1013.1 |
| 20260502031907 | 79 | 145 | 3.0 | 5.0 | 0.00 | 0.00 | 0.00 | 80 | 1013.1 |
| 20260502031343 | 79 | 177 | 1.0 | 5.0 | 0.00 | 0.00 | 0.00 | 80 | 1013.0 |
| 20260502030835 | 79 | 153 | 2.0 | 5.0 | 0.00 | 0.00 | 0.00 | 80 | 1013.0 |
| 20260502030334 | 79 | 165 | 2.0 | 6.0 | 0.00 | 0.00 | 0.00 | 79 | 1013.0 |
| 20260502025829 | 79 | 143 | 2.0 | 6.0 | 0.00 | 0.00 | 0.00 | 79 | 1013.0 |
| 20260502025321 | 79 | 156 | 2.0 | 6.0 | 0.00 | 0.00 | 0.00 | 79 | 1013.0 |
| 20260502024836 | 79 | 161 | 2.0 | 4.0 | 0.00 | 0.00 | 0.00 | 79 | 1013.0 |
| 20260502024329 | 79 | 132 | 2.0 | 7.0 | 0.00 | 0.00 | 0.00 | 78 | 1013.0 |
| 20260502023822 | 80 | 130 | 1.0 | 7.0 | 0.00 | 0.00 | 0.00 | 78 | 1013.0 |
| 20260502023332 | 80 | 131 | 1.0 | 6.0 | 0.00 | 0.00 | 0.00 | 78 | 1012.9 |
| 20260502022846 | 80 | 128 | 2.0 | 6.0 | 0.00 | 0.00 | 0.00 | 78 | 1012.9 |
| 20260502022347 | 80 | 116 | 2.0 | 7.0 | 0.00 | 0.00 | 0.00 | 78 | 1012.9 |
| 20260502021830 | 80 | 143 | 2.0 | 7.0 | 0.00 | 0.00 | 0.00 | 78 | 1012.7 |
| 20260502021324 | 80 | 148 | 3.0 | 6.0 | 0.00 | 0.00 | 0.00 | 78 | 1012.7 |
| 20260502020835 | 80 | 124 | 2.0 | 6.0 | 0.00 | 0.00 | 0.00 | 78 | 1012.6 |
| 20260502020330 | 80 | 162 | 2.0 | 6.0 | 0.00 | 0.00 | 0.00 | 78 | 1012.5 |
| 20260502015906 | 80 | 152 | 3.0 | 6.0 | 0.00 | 0.00 | 0.00 | 78 | 1012.6 |
| 20260502015331 | 80 | 111 | 2.0 | 5.0 | 0.00 | 0.00 | 0.00 | 78 | 1012.6 |
| 20260502014826 | 80 | 152 | 2.0 | 6.0 | 0.00 | 0.00 | 0.00 | 78 | 1012.5 |
| 20260502014320 | 80 | 131 | 1.0 | 7.0 | 0.00 | 0.00 | 0.00 | 78 | 1012.5 |
| 20260502013827 | 80 | 150 | 3.0 | 7.0 | 0.00 | 0.00 | 0.00 | 78 | 1012.5 |
| 20260502013349 | 80 | 198 | 3.0 | 8.0 | 0.00 | 0.00 | 0.00 | 78 | 1012.5 |
| 20260502012838 | 80 | 140 | 3.0 | 8.0 | 0.00 | 0.00 | 0.00 | 78 | 1012.5 |
| 20260502012332 | 80 | 115 | 3.0 | 8.0 | 0.00 | 0.00 | 0.00 | 78 | 1012.4 |
| 20260502011833 | 80 | 124 | 3.0 | 7.0 | 0.00 | 0.00 | 0.00 | 78 | 1012.4 |
| 20260502011328 | 80 | 127 | 3.0 | 7.0 | 0.00 | 0.00 | 0.00 | 78 | 1012.3 |
| 20260502010823 | 80 | 198 | 4.0 | 8.0 | 0.00 | 0.00 | 0.00 | 78 | 1012.2 |
| 20260502010345 | 80 | 188 | 3.0 | 8.0 | 0.00 | 0.00 | 0.00 | 78 | 1012.2 |
| 20260502005819 | 80 | 127 | 3.0 | 7.0 | 0.00 | 0.00 | 0.00 | 78 | 1012.2 |
| 20260502005350 | 80 | 182 | 4.0 | 7.0 | 0.00 | 0.00 | 0.00 | 78 | 1012.2 |
| 20260502004822 | 80 | 123 | 3.0 | 8.0 | 0.00 | 0.00 | 0.00 | 78 | 1012.0 |
| 20260502004346 | 80 | 134 | 4.0 | 9.0 | 0.00 | 0.00 | 0.00 | 78 | 1012.0 |
| 20260502003829 | 81 | 127 | 3.0 | 9.0 | 0.00 | 0.00 | 0.00 | 78 | 1012.0 |
| 20260502003342 | 81 | 179 | 2.0 | 9.0 | 0.00 | 0.00 | 0.00 | 78 | 1011.9 |
| 20260502002832 | 81 | 150 | 4.0 | 11.0 | 0.00 | 0.00 | 0.00 | 78 | 1011.7 |
| 20260502002325 | 81 | 135 | 5.0 | 10.0 | 0.00 | 0.00 | 0.00 | 78 | 1011.8 |
| 20260502001837 | 81 | 139 | 4.0 | 14.0 | 0.00 | 0.00 | 0.00 | 78 | 1011.6 |
| 20260502001349 | 81 | 143 | 6.0 | 14.0 | 0.00 | 0.00 | 0.00 | 77 | 1011.5 |
| 20260502000822 | 81 | 137 | 4.0 | 9.0 | 0.00 | 0.00 | 0.00 | 77 | 1011.6 |
| 20260502000333 | 81 | 158 | 3.0 | 7.0 | 0.00 | 0.00 | 0.00 | 77 | 1011.4 |
| 20260501235823 | 81 | 139 | 3.0 | 10.0 | 0.00 | 0.00 | 0.00 | 77 | 1011.6 |
| 20260501235336 | 81 | 107 | 5.0 | 11.0 | 0.00 | 0.00 | 0.00 | 77 | 1011.3 |
| 20260501234827 | 82 | 154 | 5.0 | 11.0 | 0.00 | 0.00 | 0.00 | 76 | 1011.3 |
| 20260501234322 | 82 | 134 | 6.0 | 10.0 | 0.00 | 0.00 | 0.00 | 77 | 1011.2 |
| 20260501233833 | 82 | 148 | 5.0 | 10.0 | 0.00 | 0.00 | 0.00 | 76 | 1011.2 |
| 20260501233327 | 82 | 60 | 6.0 | 12.0 | 0.00 | 0.00 | 0.00 | 76 | 1011.3 |
| 20260501232819 | 82 | 135 | 6.0 | 12.0 | 0.00 | 0.00 | 0.00 | 75 | 1011.2 |
| 20260501232342 | 82 | 129 | 4.0 | 11.0 | 0.00 | 0.00 | 0.00 | 75 | 1011.2 |
| 20260501231827 | 83 | 140 | 4.0 | 11.0 | 0.00 | 0.00 | 0.00 | 75 | 1011.2 |
| 20260501231320 | 83 | 167 | 5.0 | 12.0 | 0.00 | 0.00 | 0.00 | 74 | 1011.2 |
| 20260501230832 | 83 | 139 | 3.0 | 12.0 | 0.00 | 0.00 | 0.00 | 74 | 1011.1 |
| 20260501230326 | 83 | 152 | 5.0 | 10.0 | 0.00 | 0.00 | 0.00 | 74 | 1011.0 |
| 20260501225822 | 83 | 138 | 5.0 | 10.0 | 0.00 | 0.00 | 0.00 | 73 | 1010.9 |
| 20260501225336 | 84 | 150 | 5.0 | 9.0 | 0.00 | 0.00 | 0.00 | 73 | 1010.9 |
| 20260501224828 | 84 | 145 | 6.0 | 11.0 | 0.00 | 0.00 | 0.00 | 73 | 1010.9 |
| 20260501224320 | 84 | 150 | 6.0 | 12.0 | 0.00 | 0.00 | 0.00 | 72 | 1010.9 |
| 20260501223829 | 84 | 130 | 6.0 | 12.0 | 0.00 | 0.00 | 0.00 | 72 | 1010.9 |
| 20260501223322 | 85 | 155 | 5.0 | 11.0 | 0.00 | 0.00 | 0.00 | 73 | 1010.9 |
| 20260501222845 | 84 | 101 | 6.0 | 11.0 | 0.00 | 0.00 | 0.00 | 73 | 1010.8 |
| 20260501222338 | 85 | 128 | 7.0 | 11.0 | 0.00 | 0.00 | 0.00 | 73 | 1010.9 |
| 20260501221822 | 85 | 124 | 5.0 | 12.0 | 0.00 | 0.00 | 0.00 | 73 | 1010.9 |
| 20260501221332 | 85 | 144 | 7.0 | 12.0 | 0.00 | 0.00 | 0.00 | 73 | 1010.9 |
| 20260501220825 | 85 | 130 | 6.0 | 12.0 | 0.00 | 0.00 | 0.00 | 72 | 1010.9 |
| 20260501220348 | 85 | 127 | 6.0 | 12.0 | 0.00 | 0.00 | 0.00 | 72 | 1010.8 |
| 20260501215324 | 86 | 145 | 5.0 | 11.0 | 0.00 | 0.00 | 0.00 | 72 | 1010.9 |
| 20260501214834 | 86 | 134 | 6.0 | 11.0 | 0.00 | 0.00 | 0.00 | 72 | 1010.9 |
| 20260501214326 | 86 | 110 | 7.0 | 10.0 | 0.00 | 0.00 | 0.00 | 70 | 1010.9 |
| 20260501213847 | 86 | 123 | 5.0 | 10.0 | 0.00 | 0.00 | 0.00 | 71 | 1010.9 |
| 20260501213327 | 86 | 120 | 7.0 | 10.0 | 0.00 | 0.00 | 0.00 | 69 | 1010.9 |
| 20260501212841 | 86 | 112 | 4.0 | 10.0 | 0.00 | 0.00 | 0.00 | 70 | 1010.9 |
| 20260501212329 | 86 | 129 | 5.0 | 9.0 | 0.00 | 0.00 | 0.00 | 69 | 1011.1 |
| 20260501211843 | 87 | 161 | 5.0 | 7.0 | 0.00 | 0.00 | 0.00 | 69 | 1011.0 |
| 20260501211359 | 88 | 143 | 4.0 | 8.0 | 0.00 | 0.00 | 0.00 | 67 | 1011.1 |
| 20260501210833 | 89 | 335 | 1.0 | 4.0 | 0.00 | 0.00 | 0.00 | 66 | 1011.1 |
| 20260501210320 | 89 | 182 | 1.0 | 6.0 | 0.00 | 0.00 | 0.00 | 66 | 1011.1 |
| 20260501205829 | 90 | 118 | 3.0 | 7.0 | 0.00 | 0.00 | 0.00 | 64 | 1011.1 |
| 20260501205322 | 91 | 106 | 1.0 | 6.0 | 0.00 | 0.00 | 0.00 | 51 | 1011.1 |
| 20260501204845 | 91 | 297 | 1.0 | 5.0 | 0.00 | 0.00 | 0.00 | 49 | 1011.1 |
| 20260501204329 | 91 | 134 | 2.0 | 5.0 | 0.00 | 0.00 | 0.00 | 48 | 1011.2 |
| 20260501203824 | 91 | 285 | 1.0 | 4.0 | 0.00 | 0.00 | 0.00 | 50 | 1011.2 |
| 20260501203333 | 91 | 41 | 1.0 | 4.0 | 0.00 | 0.00 | 0.00 | 49 | 1011.2 |
| 20260501202826 | 92 | 279 | 1.0 | 5.0 | 0.00 | 0.00 | 0.00 | 50 | 1011.2 |
| 20260501202319 | 91 | 143 | 2.0 | 5.0 | 0.00 | 0.00 | 0.00 | 52 | 1011.3 |
| 20260501201844 | 91 | 303 | 0.0 | 5.0 | 0.00 | 0.00 | 0.00 | 53 | 1011.3 |
| 20260501201357 | 91 | 139 | 3.0 | 6.0 | 0.00 | 0.00 | 0.00 | 55 | 1011.3 |
| 20260501200836 | 92 | 150 | 1.0 | 4.0 | 0.00 | 0.00 | 0.00 | 53 | 1011.4 |
| 20260501200330 | 91 | 310 | 0.0 | 2.0 | 0.00 | 0.00 | 0.00 | 53 | 1011.5 |
| 20260501195907 | 91 | 27 | 0.0 | 5.0 | 0.00 | 0.00 | 0.00 | 51 | 1011.7 |
| 20260501195337 | 92 | 283 | 1.0 | 5.0 | 0.00 | 0.00 | 0.00 | 53 | 1011.7 |
| 20260501194851 | 91 | 131 | 1.0 | 3.0 | 0.00 | 0.00 | 0.00 | 52 | 1011.8 |
| 20260501194336 | 91 | 146 | 2.0 | 7.0 | 0.00 | 0.00 | 0.00 | 51 | 1011.9 |
| 20260501193828 | 91 | 290 | 2.0 | 7.0 | 0.00 | 0.00 | 0.00 | 52 | 1012.0 |
| 20260501193402 | 91 | 135 | 1.0 | 6.0 | 0.00 | 0.00 | 0.00 | 53 | 1012.1 |
| 20260501192835 | 91 | 129 | 1.0 | 3.0 | 0.00 | 0.00 | 0.00 | 54 | 1012.1 |
| 20260501192328 | 91 | 224 | 0.0 | 4.0 | 0.00 | 0.00 | 0.00 | 55 | 1012.2 |
| 20260501191828 | 91 | 125 | 3.0 | 4.0 | 0.00 | 0.00 | 0.00 | 53 | 1012.3 |
| 20260501191320 | 92 | 333 | 1.0 | 3.0 | 0.00 | 0.00 | 0.00 | 53 | 1012.4 |
| 20260501190831 | 91 | 146 | 0.0 | 4.0 | 0.00 | 0.00 | 0.00 | 57 | 1012.4 |
| 20260501190343 | 91 | 6 | 2.0 | 4.0 | 0.00 | 0.00 | 0.00 | 55 | 1012.5 |
| 20260501185831 | 91 | 285 | 1.0 | 4.0 | 0.00 | 0.00 | 0.00 | 56 | 1012.5 |
| 20260501185326 | 91 | 271 | 1.0 | 5.0 | 0.00 | 0.00 | 0.00 | 57 | 1012.6 |
| 20260501184826 | 90 | 91 | 1.0 | 5.0 | 0.00 | 0.00 | 0.00 | 57 | 1012.6 |
| 20260501184341 | 90 | 19 | 1.0 | 5.0 | 0.00 | 0.00 | 0.00 | 55 | 1012.7 |
| 20260501183826 | 90 | 285 | 1.0 | 4.0 | 0.00 | 0.00 | 0.00 | 57 | 1012.8 |
| 20260501183340 | 90 | 105 | 2.0 | 4.0 | 0.00 | 0.00 | 0.00 | 56 | 1012.8 |
| 20260501182828 | 91 | 23 | 1.0 | 4.0 | 0.00 | 0.00 | 0.00 | 55 | 1012.9 |
| 20260501182319 | 91 | 114 | 1.0 | 4.0 | 0.00 | 0.00 | 0.00 | 57 | 1012.9 |
| 20260501181851 | 90 | 162 | 1.0 | 4.0 | 0.00 | 0.00 | 0.00 | 57 | 1013.0 |
| 20260501181346 | 90 | 292 | 1.0 | 5.0 | 0.00 | 0.00 | 0.00 | 57 | 1013.1 |
| 20260501180856 | 90 | 34 | 1.0 | 5.0 | 0.00 | 0.00 | 0.00 | 59 | 1013.0 |
| 20260501180326 | 91 | 331 | 1.0 | 3.0 | 0.00 | 0.00 | 0.00 | 58 | 1013.1 |
| 20260501175819 | 91 | 128 | 1.0 | 3.0 | 0.00 | 0.00 | 0.00 | 57 | 1013.0 |